[Date Prev][Date Next][Thread Prev][Thread Next] - [Date Index][Thread Index][Author Index]
2 Line ISS Keps 4-23
- Subject: [sarex] 2 Line ISS Keps 4-23
- From: "Dave Larsen PhD" <doc@xxxxxxxxxxx>
- Date: Sat, 23 Apr 2005 04:25:39 -0700
ISS
1 25544U 98067A 05113.31418131 .00016360 00000-0 12972-3 0 3086
2 25544 051.6456 181.8350 0007737 042.6196 001.4607 15.71431226367058
----
Via the sarex mailing list at AMSAT.ORG courtesy of AMSAT-NA.
To unsubscribe, send "unsubscribe sarex" to Majordomo@amsat.org
AMSAT Home